CW1844 Weather Reports


time (UTC)temp
C
wind
direction
speed
KPH
gust
KPH
rain 1hr
cm
rain 24hr
cm
rain mn
cm
humidity
%
barometer
mb
20260505200912 13 360 0.0 0.0 0.00 0.00 0.00 83 1016.0
20260505195915 13 355 0.0 0.0 0.00 0.00 0.00 82 1015.9
20260505194921 13 32 0.0 0.0 0.00 0.00 0.00 80 1016.0
20260505193914 13 11 0.0 0.0 0.00 0.00 0.00 80 1016.0
20260505191914 13 5 0.0 0.0 0.00 0.00 0.00 78 1015.9
20260505190916 14 5 0.0 0.0 0.00 0.00 0.00 79 1016.1
20260505184921 14 5 0.0 0.0 0.00 0.00 0.00 78 1015.9
20260505183931 13 5 0.0 0.0 0.00 0.00 0.00 78 1015.8
20260505182932 13 5 0.0 0.0 0.00 0.00 0.00 78 1015.8
20260505181906 13 5 0.0 0.0 0.00 0.00 0.00 77 1015.8
20260505180915 13 11 0.0 0.0 0.00 0.00 0.00 78 1015.7
20260505175906 13 5 0.0 0.0 0.00 0.00 0.00 78 1015.6
20260505174916 13 5 0.0 0.0 0.00 0.00 0.00 78 1015.6
20260505172917 13 342 0.0 0.0 0.00 0.00 0.00 80 1015.6
20260505165909 12 233 0.0 0.0 0.00 0.00 0.00 82 1015.2
20260505164915 12 227 0.0 0.0 0.00 0.00 0.00 84 1015.3
20260505163931 12 340 0.0 0.0 0.00 0.00 0.00 86 1015.2
20260505161914 11 355 0.0 0.0 0.00 0.00 0.00 91 1015.2
20260505152924 10 355 0.0 0.0 0.00 0.00 0.00 93 1015.1
20260505124905 9 355 0.0 0.0 0.00 0.00 0.00 92 1014.3
20260505122916 9 355 0.0 0.0 0.00 0.00 0.00 91 1014.3
20260505121913 9 355 0.0 0.0 0.00 0.00 0.00 91 1014.4
20260505114926 9 355 0.0 0.0 0.00 0.00 0.00 91 1014.5
20260505112919 9 355 0.0 0.0 0.00 0.00 0.00 91 1014.5
20260505110912 9 355 0.0 0.0 0.00 0.00 0.00 91 1014.3
20260505100910 10 355 0.0 0.0 0.00 0.00 0.00 90 1014.5
20260505094903 10 355 0.0 0.0 0.00 0.00 0.00 90 1014.7
20260505093903 10 355 0.0 0.0 0.00 0.00 0.00 90 1014.6
20260505092909 10 355 0.0 0.0 0.00 0.00 0.00 90 1014.6
20260505085904 10 355 0.0 0.0 0.00 0.00 0.00 90 1014.8
20260505083903 10 355 0.0 0.0 0.00 0.00 0.00 90 1015.0
20260505081911 10 355 0.0 0.0 0.00 0.00 0.00 90 1015.1
20260505080912 10 355 0.0 0.0 0.00 0.00 0.00 90 1015.3
20260505074941 10 355 0.0 0.0 0.00 0.00 0.00 89 1015.2
20260505073918 10 355 0.0 0.0 0.00 0.00 0.00 89 1015.2
20260505072910 10 355 0.0 0.0 0.00 0.00 0.00 89 1015.1
20260505071921 10 355 0.0 0.0 0.00 0.00 0.00 88 1015.0
20260505070904 10 355 0.0 0.0 0.00 0.00 0.00 88 1014.9
20260505065951 10 355 0.0 0.0 0.00 0.00 0.00 87 1015.0
20260505064920 10 355 0.0 0.0 0.00 0.00 0.00 87 1015.0
20260505063913 10 355 0.0 0.0 0.00 0.00 0.00 86 1014.9
20260505062915 10 355 0.0 0.0 0.00 0.00 0.00 86 1014.7
20260505061925 11 355 0.0 0.0 0.00 0.00 0.00 85 1014.8
20260505060941 11 355 0.0 0.0 0.00 0.00 0.00 84 1014.8
20260505060036 11 355 0.0 0.0 0.00 0.00 0.00 84 1014.9
20260505055028 11 355 0.0 0.0 0.00 0.00 0.00 84 1015.1
20260505052937 11 355 0.0 0.0 0.00 0.00 0.00 83 1015.4
20260505051941 11 355 0.0 0.0 0.00 0.00 0.00 83 1015.5
20260505040909 12 14 0.0 0.0 0.00 0.00 0.00 78 1015.0
20260505035941 12 319 0.0 0.0 0.00 0.00 0.00 77 1014.8
20260505034908 12 318 0.0 0.0 0.00 0.00 0.00 75 1014.3
20260505033918 12 67 0.0 0.0 0.00 0.00 0.00 74 1014.2
20260505032903 12 65 0.0 0.0 0.00 0.00 0.00 74 1014.1
20260505031902 13 65 0.0 0.0 0.00 0.00 0.00 73 1014.2
20260505030928 13 65 0.0 0.0 0.00 0.00 0.00 72 1014.2
20260505025942 13 342 0.0 0.0 0.00 0.00 0.00 71 1014.2
20260505024909 13 18 0.0 0.0 0.00 0.00 0.00 72 1013.8
20260505023933 13 18 0.0 0.0 0.00 0.00 0.00 71 1014.1
20260505022941 14 10 0.0 0.0 0.00 0.00 0.00 71 1013.9
20260505022019 14 28 0.0 0.0 0.00 0.00 0.00 70 1013.8
20260505020854 15 5 0.0 0.0 0.00 0.00 0.00 69 1013.8
20260505013856 15 5 0.0 0.0 0.00 0.00 0.00 67 1013.9
20260505012850 15 355 0.0 0.0 0.00 0.00 0.00 66 1013.9
20260505011848 16 5 0.0 0.0 0.00 0.00 0.00 66 1014.0
20260505010847 16 360 0.0 0.0 0.00 0.00 0.00 66 1014.1
20260505005923 16 5 0.0 0.0 0.00 0.00 0.00 67 1014.1
20260505004853 15 5 0.0 0.0 0.00 0.00 0.00 67 1014.2
20260505003905 16 17 0.0 0.0 0.00 0.00 0.00 67 1014.3
20260505002910 16 347 0.0 0.0 0.00 0.00 0.00 67 1014.3
20260505001856 15 30 0.0 0.0 0.00 0.00 0.00 66 1014.2
20260505000951 15 49 0.0 0.0 0.00 0.00 0.00 66 1014.3
20260504235951 16 346 0.0 0.0 0.00 0.00 0.00 68 1014.1
20260504234910 16 349 0.0 0.0 0.00 0.00 0.00 68 1014.3
20260504231845 16 322 0.0 0.0 0.00 0.00 0.00 65 1014.2
20260504230854 16 360 0.0 0.0 0.00 0.00 0.00 65 1014.4
20260504223844 16 15 0.0 4.8 0.00 0.00 0.00 67 1014.4
20260504222914 16 20 0.0 4.8 0.00 0.00 0.00 65 1014.5
20260504221916 16 5 3.2 6.4 0.00 0.00 0.00 62 1014.6
20260504220923 17 84 0.0 0.0 0.00 0.00 0.00 60 1014.9
20260504215923 17 21 0.0 0.0 0.00 0.00 0.00 60 1014.8
20260504213921 16 157 0.0 6.4 0.00 0.00 0.00 65 1014.7
20260504212914 16 121 0.0 0.0 0.00 0.00 0.00 66 1014.8
20260504211914 15 117 0.0 0.0 0.00 0.00 0.00 67 1014.9
20260504210914 15 271 0.0 0.0 0.00 0.00 0.00 67 1015.1
20260504205915 15 5 0.0 0.0 0.00 0.00 0.00 70 1015.1
20260504204923 15 5 0.0 0.0 0.00 0.00 0.00 68 1015.1
20260504202942 15 83 0.0 0.0 0.00 0.00 0.00 68 1015.1
20260504201931 15 205 0.0 0.0 0.00 0.00 0.00 68 1015.0